Location: La Silve
(44.2414°N, 5.8889°E)
Time: 14:37:25
(UTC+00:00)

USA 267 - Visible Passes

Search period start: 12 June 2021 00:00
Search period end: 22 June 2021 00:00
Orbit: 1102 x 1106 km, 123.0° (Epoch: 08 June)

Date Brightness Start Highest point End Pass type
(mag) Time Alt. Az. Time Alt. Az. Time Alt. Az.
12 Jun 4.2 00:09:36 28° SW 00:09:41 28° SW 00:15:10 10° WNW visible
12 Jun 4.8 19:55:50 10° ENE 20:01:24 31° N 20:06:59 10° NW visible
12 Jun 3.8 21:37:26 11° ESE 21:43:36 55° NNE 21:49:57 10° NW visible
12 Jun 3.4 23:24:45 42° S 23:26:37 54° SW 23:33:01 10° WNW visible
13 Jun 5.1 01:12:04 11° WSW 01:12:04 11° WSW 01:13:03 10° W visible
13 Jun 4.5 20:55:16 10° E 21:01:12 38° NNE 21:07:09 10° NW visible
13 Jun 3.2 22:39:53 27° SE 22:43:46 87° NE 22:50:21 10° NW visible
14 Jun 4.1 00:27:12 28° SW 00:27:16 28° SW 00:32:44 10° WNW visible
14 Jun 4.9 20:13:24 10° ENE 20:18:57 31° N 20:24:32 10° NW visible
14 Jun 3.8 21:55:00 11° ESE 22:01:10 55° NNE 22:07:31 10° NW visible
14 Jun 3.4 23:42:18 41° S 23:44:10 54° SW 23:50:35 10° WNW visible
15 Jun 5.1 01:29:37 11° WSW 01:29:37 11° WSW 01:30:33 10° W visible
15 Jun 4.5 21:12:50 10° E 21:18:46 39° NNE 21:24:42 10° NW visible
15 Jun 3.2 22:57:23 26° SE 23:01:20 87° NE 23:07:55 10° NW visible
16 Jun 4.1 00:44:42 27° SW 00:44:50 27° SW 00:50:16 10° WNW visible
16 Jun 4.9 20:30:57 10° ENE 20:36:31 31° N 20:42:06 10° NW visible
16 Jun 3.8 22:12:27 10° ESE 22:18:43 55° NNE 22:25:05 10° NW visible
16 Jun 3.4 23:59:45 40° S 00:01:45 53° SW 00:08:08 10° WNW visible
17 Jun 5.0 01:47:04 11° WSW 01:47:04 11° WSW 01:48:03 10° W visible
17 Jun 5.1 19:48:56 10° NE 19:54:21 29° N 19:59:48 10° WNW visible
17 Jun 4.5 21:30:23 10° E 21:36:19 39° NNE 21:42:16 10° NW visible
17 Jun 3.2 23:14:46 25° SE 23:18:54 88° NE 23:25:29 10° NW visible
18 Jun 4.1 01:02:04 27° SW 01:02:24 27° SW 01:07:50 10° WNW visible
18 Jun 4.9 20:48:30 10° ENE 20:54:04 31° N 20:59:40 10° NW visible
18 Jun 3.8 22:29:57 10° ESE 22:36:17 56° NNE 22:42:39 10° NW visible
19 Jun 3.4 00:17:03 38° S 00:19:18 53° SW 00:25:42 10° WNW visible
19 Jun 5.0 02:04:22 11° WSW 02:04:22 11° WSW 02:05:33 10° W visible
19 Jun 5.1 20:06:29 10° NE 20:11:55 29° N 20:17:21 10° WNW visible
19 Jun 4.5 21:47:56 10° E 21:53:53 39° NNE 21:59:50 10° NW visible
19 Jun 3.2 23:32:00 22° SE 23:36:27 88° NE 23:43:03 10° NW visible
20 Jun 4.1 01:19:18 27° SW 01:19:58 27° SW 01:25:22 10° WNW visible
20 Jun 4.9 21:06:03 10° ENE 21:11:37 31° N 21:17:12 10° NW visible
20 Jun 3.8 22:47:30 10° ESE 22:53:50 56° NNE 23:00:13 10° NW visible
21 Jun 3.4 00:34:10 33° S 00:36:52 53° SW 00:43:16 10° WNW visible
21 Jun 4.9 02:21:27 12° WSW 02:21:27 12° WSW 02:23:03 10° W visible
21 Jun 5.1 20:24:02 10° NE 20:29:29 29° N 20:34:55 10° WNW visible
21 Jun 4.5 22:05:29 10° E 22:11:26 39° NNE 22:17:24 10° NW visible
